Tropical Cyclones
[Index]
Main Index Home Page Stock Weather Photos Extreme Storms Discussion Storm News and Storm Chasing Reports Tropical Cyclones / Hurricanes / Typhoons Weather Data and Links Wild Fires / Bushfires Weather Observation Techniques Weather Picture Catalogue Tornado Pictures and Reports Stock Video Footage and DVDs for sale
Season 1980-1981 Tropical Cyclone CAROL Track Map
Season 1980-1981 Summaries: [BoM-AU] [JTWC-AU] [JTWC-SIO] [JTWC-SPAC] [JTWC-SH]
<<- Previous TC | BoM 1980-1981 Season | Next TC ->>

click for intensity scale information  Lat/long Grid: Show Hide

 Date Labels: Show Hide

Bureau of Meteorology Tropical Cyclone Data

Name: CAROL
Number: 610 / 198081_03

12 Dec 1980 00:00 UTC to 22 Dec 1980 12:00 UTC

    date/time    lat    long    hPa   cat  kts
1980-12-12 00   10.8   122.3   1006                     
1980-12-12 06   10.9   121.7   1005                     
1980-12-12 12   11.1   120.9   1004                     
1980-12-12 18   11.3   120.1   1003                     
1980-12-13 00   11.8   119.2   1001                     
1980-12-13 06   12.4   118.6    996                     
1980-12-13 12   12.9   118.2    990    1                
1980-12-13 18   13.4   117.8    995    1                
1980-12-14 00   13.7   117.4    980    2                
1980-12-14 06   13.8   116.7    977    2                
1980-12-14 12   13.7   115.7    974    2                
1980-12-14 18   13.7   114.7    971    2                
1980-12-14 21   13.8   114.3    968    3                
1980-12-15 00   14.0   113.8    965    3                
1980-12-15 06   14.3   112.7    963    3                
1980-12-15 12   14.5   111.5    961    3                
1980-12-15 18   14.6   110.2    958    3                
1980-12-16 00   14.6   108.9    955    4                
1980-12-16 06   15.1   107.9    952    4                
1980-12-16 12   15.8   107.0    948    4                
1980-12-16 18   16.5   106.0    944    4                
1980-12-17 00   16.9   105.0    940    4                
1980-12-17 06   16.9   104.0    947    4                
1980-12-17 12   16.7   103.1    954    4                
1980-12-17 18   16.6   102.7    962    3                
1980-12-18 00   16.6   102.3    970    3                
1980-12-18 06   16.7   102.0    975    2                
1980-12-18 12   16.7   101.9    979    2                
1980-12-18 18   16.8   101.7    982    2                
1980-12-19 00   17.1   101.6    985    2                
1980-12-19 06   17.4   101.3    985    2                
1980-12-19 12   17.6   101.0    986    1                
1980-12-19 18   17.7   100.6    987    1                
1980-12-20 00   17.9   100.2    988    1                
1980-12-20 06   18.1    99.7    988    1                
1980-12-20 12   18.2    99.0    989    1                
1980-12-20 18   18.1    98.1    989    1                
1980-12-20 21   17.8    97.5    990    1                
1980-12-21 00   17.5    97.0    990    1                
1980-12-21 06   16.6    96.2    991    1                
1980-12-21 12   15.7    95.2    991    1                
1980-12-21 18   14.9    93.8    992    1                
1980-12-21 21   14.8    93.0    993    1                
1980-12-22 00   15.0    92.1    994    1                
1980-12-22 06   15.4    91.4    996                     
1980-12-22 12   16.2    89.9    997                     
Winds are 10-min average.

Tropical cyclone tracks developed by Michael Bath using data from the Bureau of Meteorology and Google Maps.


[Australian Severe Weather index] [Copyright Notice] [Email Contacts] [Search This Site] [Privacy Policy]
Document: tropical_cyclone_carol.htm Updated: 30 May 2013